Regional Weather Roundup
Issued by NWS

Home | Current Version | Previous Version | Graphics & Text | Print | Product List | Glossary Off
Versions: 1 2 3 4 5 6 7 8 9 10 11 12 13 14 15 16 17 18 19 20 21 22 23 24 25 26 27 28 29 30 31 32 33 34 35 36 37 38 39 40 41 42 43 44 45 46 47 48 49 50

000
ASUS43 KTOP 252108
RWRKS

WEATHER ROUNDUP FOR KANSAS
NATIONAL WEATHER SERVICE GOODLAND KS
300 PM CST SUN JAN 25 2015

NOTE:  "FAIR" INDICATES FEW OR NO CLOUDS BELOW 12,000 FEET WITH NO
SIGNIFICANT WEATHER AND/OR OBSTRUCTIONS TO VISIBILITY.

KSZ001>006-013>018-027>032-041>047-252200-
NORTHWEST KANSAS

CITY           SKY/WX    TMP DP  RH WIND       PRES   REMARKS
GOODLAND       SUNNY     55  28  35 N23G32    30.07F
HAYS           SUNNY     52  25  35 N20G28    30.07F
HILL CITY      SUNNY     52  24  33 N18G29    30.06F
RUSSELL        MOSUNNY   52  26  36 N25G31    30.05S
$$

KSZ061>065-074>080-084>089-252200-
SOUTHWEST KANSAS

CITY           SKY/WX    TMP DP  RH WIND       PRES   REMARKS
DODGE CITY     SUNNY     55  18  23 N25G35    30.08F
ELKHART          N/A     56  29  35 NW13        N/A
GARDEN CITY    SUNNY     57  20  23 N21G26    30.08F
GREAT BEND     SUNNY     52  27  37 N23G33    30.07R
LIBERAL        SUNNY     61  27  27 N30G36    30.11F
PRATT          SUNNY     52  25  35 N30G36    30.07R
$$

KSZ066>073-081>083-090>101-252200-
SOUTHEAST KANSAS

CITY           SKY/WX    TMP DP  RH WIND       PRES   REMARKS
CHANUTE        CLOUDY    44  32  62 NW20G28   29.96R
COFFEYVILLE    CLOUDY    47  32  56 N23G29    29.96R
HUTCHINSON     PTSUNNY   52  28  39 N28G37    30.04R
MEDICINE LODGE   N/A     55  26  32 N20G31    30.05R
NEWTON         CLOUDY    46  28  49 N26G38    30.02R
PARSONS        CLOUDY    46  32  58 NW22G29   29.97R
WICHITA INTL   PTSUNNY   51  29  42 N23G36    30.02R
WICHITA JABRA  PTSUNNY   48  29  47 N26G37    30.01R
WICHITA MCCONL PTSUNNY   49  31  49 N25G32    30.01R
WINFIELD       PTSUNNY   49  29  46 NW26      30.02R
$$

KSZ007>012-019>026-033>040-048>060-102>105-252200-
NORTHEAST KANSAS

CITY           SKY/WX    TMP DP  RH WIND       PRES   REMARKS
CONCORDIA      CLOUDY    43  31  62 N18G31    30.04S
EMPORIA        CLOUDY    44  31  60 N18G29    29.98R
LAWRENCE       CLOUDY    38  33  82 N22G33    29.96R WCI  27
MANHATTAN      CLOUDY    45  31  58 N13G22    30.02R
MARYSVILLE     CLOUDY    39  32  75 N16G23    30.02R WCI  30
OLATHE IND     CLOUDY    38  34  85 NW22G31   29.93R WCI  27
OLATHE EXE     CLOUDY    39  33  79 N15G28    29.91R WCI  31
SALINA         CLOUDY    49  31  49 N24       30.05R
TOPEKA BILLARD CLOUDY    40  32  73 N15G23    29.99R WCI  32
TOPEKA FORBES  CLOUDY    41  32  70 N20G26    29.97R
$$


USA.gov is the U.S. government's official web portal to all federal, state and local government web resources and services.